Regional Weather Roundup
Issued by NWS

Home | Current Version | Previous Version | Text Only | Print | Product List | Glossary On
Versions: 1 2 3 4 5 6 7 8 9 10 11 12 13 14 15 16 17 18 19 20 21 22 23 24 25 26 27 28 29 30 31 32 33 34 35 36 37 38 39 40 41 42 43 44 45 46 47 48 49 50
000
ASUS42 KKEY 241610
RWRKEY

FLORIDA REGIONAL WEATHER ROUNDUP FOR THE FLORIDA KEYS
NATIONAL WEATHER SERVICE KEY WEST FLORIDA
1100 AM EST MON NOV 24 2014

...SOUTH FLORIDA AND THE KEYS...

CITY           SKY/WX    TMP DP  RH WIND       PRES   REMARKS
FORT MYERS     PTSUNNY   83  73  72 S13       29.99F
SW REGIONAL AP PTSUNNY   83  73  72 S14       30.00F
NAPLES         MOSUNNY   83  73  72 S9        30.00S
MIAMI          PTSUNNY   84  74  71 S10       30.02F HX  91
WEST KENDALL   MOSUNNY   85  75  72 S8        30.02F HX  93
HOMESTEAD      MOSUNNY   85  75  71 S8        30.02F HX  94
MARATHON       SUNNY     84  78  82 SE3       30.02S HX  95
BOCA CHICA NAS MOSUNNY   81  75  82 SE9       30.01F
KEY WEST INTL  SUNNY     81  81 100 SE8       30.02S HX  92

...INTERNATIONAL WEATHER...

CITY           SKY/WX    TMP DP  RH WIND       PRES   REMARKS
NASSAU BAHAMAS PTSUNNY   82  75  78 SE14      30.06F
CANCUN MEXICO  MOSUNNY   86  75  70 SE13      29.95R HX  95
COZUMEL MEXICO MOSUNNY   81  77  89 SE10      29.94R

ADJACENT COASTAL WATERS...

STATION/POSITION TIME  SKY/WX   TEMP    WIND        PRES    WAVE
                                AIR SEA DIR/SP/G            HT/PER
                 (UTC)          (F)     (DEG/KT/KT) (MB)    (FT/S)
PULASKI SHOAL LI 1500            78     140/  9/ 10 1015.9R
SAND KEY         1538            78     130/  9/ 10 1016.4F
SOMBRERO KEY     1600            81     150/  5/  6 1017.1F
LONG KEY         1500            80 76   CALM  /  1 1017.6R
MOLASSES REEF    1500            80 78  200/  5/  6 1017.0R
FOWEY ROCKS      1600            83 78  170/ 11/ 11 1016.8F
Buoy 42080       NOT AVBL

$$


USA.gov is the U.S. government's official web portal to all federal, state and local government web resources and services.